METEOR 1-29 (11251 NORAD) Tracking and Keplerian Element Data

This shows tracking and keplerian element data for the satellite.

Feedback or suggestion? Click here.




ElementValue
Catalog11251
NameMETEOR 1-29
Epoch Orbit988
Epoch Day13.04581279
Epoch Year2024
RAAN43.6196
Inclination97.7345
Eccentricity0.000674
Argument of Perigee84.9773
Mean Anonmoly275.2267
Mean Motion15.88499472
Decay Rate0.00158207
L11 11251U 79005A 24013.04581279 .00158207 11205-4 57488-3 0 9998
L22 11251 97.7345 43.6196 0006740 84.9773 275.2267 15.88499472 9884



Live tracking and technical data element details for METEOR 1-29 (NORAD 11251). METEOR 1-29 can be tracked NOW for your location showing map with azimuth and elevation plus other details from your city location.







IsCatalogInMostPopularTable: catalog: 11251, numindb: 324
Update: records affected: 1



GetName: 11251 METEOR 1-29

Hit Count: updated at: Mon, 15 Apr 2024 00:10:03 GMT